FENGYUN 1C DEB

Satellite information

Favourite Embed

Satellite Type and Status

DEBRISIN ORBIT

Key statistics

Satellite FENGYUN 1C DEB at a glance.

Uptime

9493

Days in orbit

Revolutions

≈ 13.7

Per day

Orbit

SSO

Sun Synchronous Orbit

Inclination

98.4

Latest

Satellite identification and parameters

Extended collection of information and parameters for FENGYUN 1C DEB.

Object identification

Identified? True

Debris? True

Object name: FENGYUN 1C DEB

International designator: 1999-025DEW

Object number (NORAD): 33661

Object ID (CCSDS): 33661

Country: PEOPLES REPUBLIC OF CHINA (PRC)

Current information (Y/N): Y

RCS size: SMALL

Orbital parameters

Period: 104.953 minutes

Inclination: 98.4245 deg

SMA: 7370.378 km

Apoapsis: 1165.646 km

Periapsis: 818.84 km

RAAN: 38.7984 deg

Eccentricy: 0.023527

Argument of periapsis: 28.9023 deg

Mean anomaly: 121.0641 deg

Mean motion: 13.72044213 rev/day

Mean motion (dot): 0.00002381 rev/day2

B* drag term: 0.0021833 1/REarth

Two-line elements (TLE)

Creation date: May 5, 2025, 6:36 a.m.

Reference frame: TEME

Reference center: EARTH

Epoch: May 5, 2025, 6:01 a.m. UTC

TLE line 0: 0 FENGYUN 1C DEB

TLE line 1: 1 33661U 99025DEW 25125.25084980 .00002381 00000-0 21833-2 0 9998

TLE line 2: 2 33661 98.4245 38.7984 0235270 28.9023 121.0641 13.72044213855757

Live tracking on map

Real-time ground track for satellite FENGYUN 1C DEB.

In-orbit conjunctions

A list of the most updated potential collisions computed for object FENGYUN 1C DEB.

Target Orbit TCA Probability of collision Miss distance Type
SL-14 R/B LEO 2025-03-02 03:47:41 0.0006974156 10.0 (m) ROCKET BODY

Associated space launch

Chinese polar orbiting meteorological satellite

FENGYUN 1C DEB was lifted into orbit during the mission ‘Long March 4B | Feng Yun 1C’, on board a Long March 4B space rocket.

The launch took place on May 10, 1999, 1:33 a.m. from Launch Complex 7.

For more information about the launch, click the button.

Launch to space Long March 4B | Feng Yun 1C
Long March 4B | Feng Yun 1C

Agency: N/A

Status: Launch Successful

Launch date: May 10, 1999, 1:33 a.m. UTC

Rocket: Long March 4B

Launch pad: Launch Complex 7

Location: Taiyuan Satellite Launch Center, People's Republic of China

...

Latest news about this satellite

There are no fresh news available about this satellite. Check back as we update our databases every day.


Newsletter sign-up

Weekly statistics, charts and insights to help you stay on top of the space industry.